ATLAS D DEB, 2329

Orbit data source: Space-Track

ATLAS D DEB, 2329 is space debris in LEO originally from a launch on Thu, 14 Jul 1966 UTC launched from the Air Force Western Test Range (AFWTR). Debris objects in space refer to the collection of defunct objects orbiting the Earth. Examples of debris include non-operational satellites, rocket bodies, and fragments generated from explosions, collisions, or faulty payload assembly.

Loading next visibility...
Identifier
2329, 1966-063D
Orbit
LEO
Country
Flag of USUS
Related business
Manufacturer
Goodyear
Mission
Spacecraft
Bus & Motor
CONTAINER, Unknown motor
Mass
2 kg wet, 2 kg dry
Launch date (UTC)
1966-07-14 (59 years ago)
Launch vehicle
Unknown
Launch site
Air Force Western Test Range (AFWTR)
Object type
Payload
Rocket body
Debris
Shape & HBR
Half Cyl, 0.3 m
Radar Cross Section
0.210 m², Medium (>0.1 m² and < 1m²)

Expand to show TLE details & history
Last TLE update: 2 days ago

TLE from 2 days ago
0 ATLAS D DEB
1 02329U 66063D   25260.27079189  .00000682  00000-0  32110-3 0  9991
2 02329 144.2855 156.8169 0021339  79.3411  61.3039 13.92115474984208
Epoch: 2025-09-17T06:29Z
TLE epoch observation values (Epoch: 2025-09-17T06:29:56.419Z)
Latitude
21.70268°
Longitude
-83.70348°
Altitude
912.563 km
Speed
7.403 km/s
True Right ascension
00h 40m 55s
True Declination
21° 35' 14"
Sunlit
Object was in full shadow at epoch
Visualization orbit readout
Latitude
Unknown
Longitude
Unknown
Altitude
Unknown
Speed
Unknown
Apparent Right ascension
Unknown
Apparent Declination
Unknown
Sunlit
N/A
Visualization observer readout
Local Sidereal Time
15:14:35
Azimuth
Unknown
Elevation
Unknown
Doppler factor
Unknown
Orbital elements
Apogee altitude
939.764 km
Perigee altitude
908.599 km
Semi-major axis
7,302.319 km
Eccentricity
0.00213
Inclination
144.2855°
RAAN
156.8169°
Arg. of periapsis
79.3411°
True anomaly
61.51867°
Mean anomaly
61.3039°
Eccentric anomaly
61.41126°
Mean motion
3.47818 °/min
Orbital period
103.5 mins
BSTAR
0.0003211
Loading maneuver chart data...
Computing Atmospheric mass density...
Loading historical data...
Loading historical data...
Loading historical data...
Loading historical data...
Loading historical data...
Loading historical data...
Loading historical data...

Documentation

Showing up to 5 results
|